Regional Weather Roundup
Issued by NWS

Home | Current Version | Previous Version | Text Only | Print | Product List | Glossary Off
Versions: 1 2 3 4 5 6 7 8 9 10 11 12 13 14 15 16 17 18 19 20 21 22 23 24 25 26 27 28 29 30 31 32 33 34 35 36 37 38 39 40 41 42 43 44 45 46 47 48 49 50

000
ASUS45 KBOU 110010
RWRCO

WEATHER ROUNDUP FOR COLORADO
NATIONAL WEATHER SERVICE DENVER/BOULDER CO
600 PM MDT THU JUL 10 2014

NOTE: "FAIR" INDICATES FEW OR NO CLOUDS BELOW 12000 FEET WITH NO
SIGNIFICANT WEATHER AND/OR OBSTRUCTIONS TO VISIBILITY.

COZ001>005-013-030-031-110100-
...NORTHWEST COLORADO...

CITY           SKY/WX    TMP DP  RH WIND       PRES   REMARKS
CRAIG          MOSUNNY   79  48  33 SW10      30.05F
HAYDEN         MOSUNNY   82  45  26 W10       30.08S
MEEKER         MOSUNNY   81  48  31 CALM      30.08F
MOUNT WERNER   NOT AVBL
STEAMBOAT SPGS MOSUNNY   82  46  28 SW5       30.10F
WALDEN         PTSUNNY   77  39  25 SW8       30.20F
$$

COZ006>008-011-110100-
...WEST CENTRAL VALLEYS...

CITY           SKY/WX    TMP DP  RH WIND       PRES   REMARKS
GRAND JUNCTION MOSUNNY   90  49  24 NW6       29.92F
MONTROSE       PTSUNNY   90  46  21 SE9       30.03F
EAGLE          PTSUNNY   84  46  26 E21       30.08F
RIFLE          SUNNY     91  46  21 NE7       29.97F
DELTA          PTSUNNY   94  46  19 S8        29.96F
NUCLA          PTSUNNY   86  45  23 CALM      30.09F
$$

COZ017>023-064>068-110100-
...SOUTHWEST COLORADO...

CITY           SKY/WX    TMP DP  RH WIND       PRES   REMARKS
DURANGO        TSTM      72  54  53 N16       30.12S
CORTEZ         SUNNY     87  46  24 W7        30.05F
PAGOSA SPRINGS CLOUDY    71  54  54 NW5       30.23F THUNDER
TELLURIDE      PTSUNNY   70  48  46 CALM      30.34R
WOLF CREEK PAS NOT AVBL
$$

COZ009-010-012-014-032>034-037-058>063-110100-
...CENTRAL COLORADO...

CITY           SKY/WX    TMP DP  RH WIND       PRES   REMARKS
ASPEN          MOSUNNY   77  45  32 W6        30.18F
BUENA VISTA    CLOUDY    69  42  37 SW15      30.25R
COPPER MTN     CLOUDY    54  37  54 W15       30.59S
BERTHOUD PASS  TSTM      46  32  57 MISG      30.63F
COTTONWOOD PAS LGT RAIN  57  45  62 W20G25    30.42R
GUNNISON       CLOUDY    73  45  35 S15       30.25R
KREMMLING      PTSUNNY   73  50  43 E14       30.19S
LEADVILLE      PTSUNNY   67  39  35 N12       30.37F
MONARCH PASS   CLOUDY    57  37  47 SW14      30.68S
SALIDA         PTSUNNY  N/A N/A N/A N3        30.25S
SUNLIGHT       MOSUNNY   72  46  40 CALM      30.46S
WILKERSON PASS CLOUDY    59  37  44 SE5       30.54S
$$

COZ069>075-110100-
...SAN LUIS VALLEY/SANGRE DE CRISTO MOUNTAINS...

CITY           SKY/WX    TMP DP  RH WIND       PRES   REMARKS
ALAMOSA        MOSUNNY   80  45  28 E14G25    30.17S
LA VETA PASS   PTSUNNY   64  36  34 CALM      30.42S
SAGUACHE       NOT AVBL
$$

COZ035-036-038>040-110100-
...NORTHERN COLORADO FRONT RANGE...

CITY           SKY/WX    TMP DP  RH WIND       PRES   REMARKS
DENVER INTL AP CLOUDY    93  40  15 SE14      29.96F
DMNS CITY PARK   N/A     87  48  25 W9        29.97S
AURORA         PTSUNNY   87  46  24 SE8       29.99F
FRONT RANGE AP PTSUNNY   91  39  16 SW9G25    29.98F
ERIE MUNI ARPT CLOUDY    86  46  24 NW8       29.94F
BOULDER MUN AP CLOUDY    86  43  22 SW10      29.96F
CENTENNIAL     CLOUDY    87  44  22 NW8       30.01F
BROOMFIELD     PTSUNNY   86  46  25 SW8       30.00F
FORT COLLINS   PTSUNNY   90  46  22 SW12      29.92S
LONGMONT       PTSUNNY   91  42  18 SW10      29.96S
$$

COZ041-046-047-076>085-087-088-110100-
...PIKES PEAK/PALMER DIVIDE AND SOUTHERN FOOTHILLS...

CITY           SKY/WX    TMP DP  RH WIND       PRES   REMARKS
COLO. SPRINGS  PTSUNNY   88  34  14 SE8       30.06F
A. F. ACADEMY  PTSUNNY   81  44  27 N14       30.09S
ELLICOTT       NOT AVBL
FALCON         PTSUNNY   83  33  16 SW8       30.13F
FORT CARSON    PTSUNNY   89  37  16 SE8       30.02F
LIMON          SUNNY     91  38  15 SE13      29.99S
MONUMENT HILL  PTSUNNY   82  39  21 SW16G23   30.13S
TRINIDAD       MOSUNNY   93  41  16 S8        30.00S
$$

COZ042>045-048>051-090-091-110100-
...NORTHEAST COLORADO...

CITY           SKY/WX    TMP DP  RH WIND       PRES   REMARKS
GREELEY ARPT   NOT AVBL
AKRON          MOSUNNY   92  50  23 S15G24    29.93F
BURLINGTON     SUNNY     88  65  46 E21       29.92F
WRAY             N/A     95  54  25 S14G20    29.88F
STERLING       MOSUNNY   97  57  26 S8        29.86F
HOLYOKE        SUNNY     95  61  31 SE12      29.87F
FORT MORGAN    MOSUNNY   95  48  20 SE8       29.90F
$$

COZ086-089-092>099-110100-
...SOUTHEAST COLORADO...

CITY           SKY/WX    TMP DP  RH WIND       PRES   REMARKS
PUEBLO         MOSUNNY   97  35  11 SE14      29.91F
LA JUNTA       SUNNY    100  36  11 CALM      29.88S
LAMAR          MOSUNNY  101  45  15 S18G25    29.83S
SPRINGFIELD      N/A     93  48  21 S15G25    29.94S
$$



USA.gov is the U.S. government's official web portal to all federal, state and local government web resources and services.